This demonstration page uses our WeatherBlox Daily Observations layout. Learn more.

Left ArrowRight Arrow

53.62937, 11.41316

Hourly Observations for April 15, 2022

Temp ( °F °C ) Dew Point ( °F °C ) Humidity (%) Winds ( mph kmh ) Pressure ( in mb ) Visibility ( mi km ) Precip ( " mm )
12:20 am 00:20 Cloudy 46 8 43 6 87 87 W 9 15 30.15 1021 30 48 N/A
12:50 am 00:50 Cloudy 46 8 41 5 82 82 WNW 13 20 30.15 1021 30 48 N/A
1:20 am 01:20 Cloudy 46 8 41 5 82 82 W 8 13 30.15 1021 30 48 N/A
1:50 am 01:50 Cloudy 46 8 41 5 82 82 W 7 11 30.15 1021 30 48 N/A
2:20 am 02:20 Cloudy 46 8 43 6 87 87 W 8 13 30.15 1021 30 48 N/A
2:50 am 02:50 Cloudy 46 8 43 6 87 87 W 8 13 30.15 1021 30 48 N/A
3:20 am 03:20 Cloudy 46 8 43 6 87 87 W 8 13 30.15 1021 30 48 N/A
3:50 am 03:50 Cloudy 46 8 43 6 87 87 W 9 15 30.15 1021 30 48 N/A
4:20 am 04:20 Cloudy 46 8 43 6 87 87 W 8 13 30.15 1021 30 48 N/A
4:50 am 04:50 Cloudy 46 8 43 6 87 87 WNW 8 13 30.18 1022 30 48 N/A
5:20 am 05:20 Cloudy 46 8 43 6 87 87 WNW 10 17 30.18 1022 30 48 N/A
5:50 am 05:50 Cloudy 46 8 43 6 87 87 WNW 10 17 30.18 1022 30 48 N/A
6:20 am 06:20 Cloudy 46 8 43 6 87 87 WNW 9 15 30.18 1022 30 48 N/A
6:50 am 06:50 Cloudy 46 8 43 6 87 87 WNW 8 13 30.18 1022 30 48 N/A
7:20 am 07:20 Cloudy 46 8 43 6 87 87 NW 9 15 30.21 1023 30 48 N/A
7:50 am 07:50 Cloudy 46 8 43 6 87 87 NW 8 13 30.21 1023 30 48 N/A
8:20 am 08:20 Cloudy 46 8 43 6 87 87 NW 9 15 30.21 1023 30 48 N/A
8:50 am 08:50 Mostly Cloudy 46 8 43 6 87 87 NW 9 15 30.24 1024 30 48 N/A
9:20 am 09:20 Mostly Cloudy 46 8 43 6 87 87 NNW 10 17 30.24 1024 30 48 N/A
9:50 am 09:50 Cloudy 46 8 43 6 87 87 NNW 10 17 30.24 1024 30 48 N/A
10:20 am 10:20 Cloudy 46 8 43 6 87 87 NNW 9 15 30.27 1025 30 48 N/A
10:50 am 10:50 Cloudy 46 8 43 6 87 87 NNW 13 20 30.27 1025 30 48 N/A
11:20 am 11:20 Cloudy 46 8 45 7 93 93 NNW 12 19 30.27 1025 30 48 N/A
11:50 am 11:50 Mostly Cloudy 46 8 45 7 93 93 NNW 12 19 30.30 1026 30 48 N/A
12:20 pm 12:20 Cloudy 46 8 45 7 93 93 NNW 9 15 30.30 1026 30 48 N/A
12:50 pm 12:50 Cloudy 46 8 45 7 93 93 NNW 10 17 30.30 1026 30 48 N/A
1:20 pm 13:20 Mostly Cloudy 46 8 45 7 93 93 N 8 13 30.33 1027 4 7 N/A
1:50 pm 13:50 Cloudy 45 7 43 6 93 93 NE 12 19 30.33 1027 4 6 N/A
2:20 pm 14:20 Mostly Sunny 45 7 43 6 93 93 NE 10 17 30.33 1027 30 48 N/A
2:50 pm 14:50 Cloudy 46 8 43 6 87 87 NE 10 17 30.36 1028 6 9 N/A
3:20 pm 15:20 Cloudy 46 8 41 5 82 82 NE 12 19 30.36 1028 30 48 N/A
3:50 pm 15:50 Cloudy 46 8 41 5 82 82 NNE 9 15 30.36 1028 30 48 N/A
4:20 pm 16:20 Cloudy 46 8 41 5 82 82 NE 8 13 30.36 1028 30 48 N/A
4:50 pm 16:50 Cloudy 46 8 41 5 82 82 NNE 9 15 30.39 1029 30 48 N/A
5:20 pm 17:20 Cloudy 46 8 41 5 82 82 NNE 9 15 30.39 1029 30 48 N/A
5:50 pm 17:50 Cloudy 46 8 41 5 82 82 NNE 8 13 30.39 1029 30 48 N/A
6:20 pm 18:20 Cloudy 45 7 41 5 87 87 NE 9 15 30.39 1029 30 48 N/A
6:50 pm 18:50 Cloudy 45 7 41 5 87 87 NNE 8 13 30.42 1030 30 48 N/A
7:20 pm 19:20 Cloudy 45 7 41 5 87 87 NNE 9 15 30.42 1030 30 48 N/A
7:50 pm 19:50 Mostly Cloudy 45 7 39 4 81 81 NE 8 13 30.45 1031 30 48 N/A
8:20 pm 20:20 Mostly Cloudy 43 6 39 4 87 87 NE 9 15 30.45 1031 30 48 N/A
8:50 pm 20:50 Cloudy 43 6 39 4 87 87 ENE 9 15 30.45 1031 30 48 N/A
9:50 pm 21:50 Cloudy 43 6 39 4 87 87 ENE 8 13 30.48 1032 30 48 N/A
10:20 pm 22:20 Cloudy 43 6 39 4 87 87 ENE 9 15 30.48 1032 30 48 N/A
10:50 pm 22:50 Cloudy 43 6 37 3 81 81 ENE 9 15 30.48 1032 30 48 N/A
11:20 pm 23:20 Mostly Cloudy 41 5 36 2 81 81 ENE 8 13 30.51 1033 30 48 N/A
11:50 pm 23:50 Mostly Cloudy 41 5 37 3 87 87 ENE 6 9 30.51 1033 30 48 N/A

Powered by AerisWeather